When you browse on this site, cookies collect data to enhance your experience and personalize the content and advertising you see.
Visit our Privacy Policy to learn more. By continuing to use the site, you agree to this use of cookies and data.
EN

Hourly Weather Orsha

Today, 9 July, Thursday

Time Temperature Precipitation Wind Pressure Humidity
00:00 +13°C° 0 mm 2 mps 742 mmHg 88%
01:00 +12°C° 0 mm 2 mps 743 mmHg 89%
02:00 +11°C° 0 mm 3 mps 743 mmHg 93%
03:00 +11°C° 0 mm 3 mps 743 mmHg 94%
04:00 +10°C° 0 mm 3 mps 743 mmHg 95%
05:00 +10°C° 0 mm 3 mps 743 mmHg 96%
06:00 +11°C° 0 mm 3 mps 743 mmHg 92%
07:00 +12°C° 0 mm 4 mps 743 mmHg 88%
08:00 +14°C° 0 mm 4 mps 744 mmHg 82%
09:00 +15°C° 0 mm 4 mps 744 mmHg 77%
10:00 +15°C° 0 mm 4 mps 745 mmHg 72%
11:00 +17°C° 0 mm 4 mps 745 mmHg 67%
12:00 +18°C° 0.1 mm 4 mps 745 mmHg 66%
13:00 +18°C° 0.1 mm 4 mps 745 mmHg 65%
14:00 +18°C° 0 mm 4 mps 746 mmHg 62%
15:00 +18°C° 0.4 mm 4 mps 746 mmHg 66%
16:00 +18°C° 0.4 mm 4 mps 746 mmHg 71%
17:00 +17°C° 0.4 mm 4 mps 746 mmHg 75%
18:00 +16°C° 0.1 mm 3 mps 746 mmHg 78%
19:00 +15°C° 0.1 mm 2 mps 746 mmHg 82%
20:00 +14°C° 0.1 mm 2 mps 746 mmHg 85%
21:00 +13°C° 0 mm 2 mps 746 mmHg 86%
22:00 +12°C° 0 mm 2 mps 746 mmHg 88%
23:00 +12°C° 0 mm 2 mps 746 mmHg 89%

Tomorrow, 10 July, Friday

Time Temperature Precipitation Wind Pressure Humidity
00:00 +10°C° 0 mm 2 mps 747 mmHg 89%
01:00 +10°C° 0 mm 2 mps 747 mmHg 90%
02:00 +10°C° 0 mm 2 mps 747 mmHg 90%
03:00 +10°C° 0 mm 2 mps 747 mmHg 91%
04:00 +10°C° 0 mm 3 mps 747 mmHg 92%
05:00 +10°C° 0 mm 3 mps 747 mmHg 92%
06:00 +12°C° 0 mm 4 mps 747 mmHg 88%
07:00 +14°C° 0 mm 5 mps 747 mmHg 85%
08:00 +15°C° 0 mm 6 mps 746 mmHg 81%
09:00 +16°C° 0 mm 6 mps 746 mmHg 80%
10:00 +16°C° 0 mm 6 mps 746 mmHg 79%
11:00 +17°C° 0 mm 6 mps 746 mmHg 79%
12:00 +17°C° 0.1 mm 6 mps 745 mmHg 80%
13:00 +17°C° 0.1 mm 6 mps 745 mmHg 81%
14:00 +17°C° 0.1 mm 6 mps 745 mmHg 82%
15:00 +19°C° 0.2 mm 6 mps 744 mmHg 83%
16:00 +20°C° 0.2 mm 6 mps 744 mmHg 84%
17:00 +21°C° 0.2 mm 6 mps 744 mmHg 86%
18:00 +20°C° 1.1 mm 6 mps 744 mmHg 87%
19:00 +20°C° 1.1 mm 6 mps 744 mmHg 89%
20:00 +20°C° 1.1 mm 6 mps 744 mmHg 91%
21:00 +19°C° 0.2 mm 5 mps 744 mmHg 93%
22:00 +19°C° 0.2 mm 5 mps 744 mmHg 94%
23:00 +18°C° 0.2 mm 4 mps 744 mmHg 96%

Day after tomorrow, 11 July, Saturday

Time Temperature Precipitation Wind Pressure Humidity
00:00 +18°C° 0 mm 4 mps 744 mmHg 96%
01:00 +18°C° 0 mm 4 mps 744 mmHg 96%
02:00 +18°C° 0 mm 4 mps 744 mmHg 97%
03:00 +17°C° 0 mm 5 mps 744 mmHg 97%
04:00 +17°C° 0 mm 5 mps 744 mmHg 97%
05:00 +17°C° 0 mm 5 mps 744 mmHg 97%
06:00 +20°C° 0 mm 6 mps 744 mmHg 94%
07:00 +21°C° 0 mm 6 mps 744 mmHg 91%
08:00 +22°C° 0 mm 7 mps 744 mmHg 88%
09:00 +23°C° 0 mm 6 mps 745 mmHg 86%
10:00 +24°C° 0 mm 6 mps 745 mmHg 84%
11:00 +24°C° 0 mm 6 mps 745 mmHg 82%
12:00 +26°C° 0.5 mm 5 mps 745 mmHg 81%
13:00 +26°C° 0.5 mm 5 mps 745 mmHg 81%
14:00 +26°C° 0.5 mm 5 mps 745 mmHg 80%
15:00 +26°C° 0.9 mm 5 mps 745 mmHg 80%
16:00 +25°C° 0.9 mm 4 mps 745 mmHg 81%
17:00 +25°C° 0.9 mm 4 mps 746 mmHg 81%
18:00 +22°C° 0.2 mm 3 mps 746 mmHg 83%
19:00 +20°C° 0.2 mm 3 mps 746 mmHg 84%
20:00 +18°C° 0.2 mm 3 mps 746 mmHg 85%
21:00 +17°C° 0.3 mm 3 mps 746 mmHg 85%
22:00 +17°C° 0.3 mm 3 mps 746 mmHg 85%
23:00 +16°C° 0.3 mm 3 mps 746 mmHg 85%

12 July, Sunday

Time Temperature Precipitation Wind Pressure Humidity
00:00 +16°C° 0.6 mm 3 mps 746 mmHg 86%
01:00 +16°C° 0.6 mm 3 mps 746 mmHg 87%
02:00 +14°C° 0.6 mm 3 mps 746 mmHg 89%
03:00 +14°C° 0.1 mm 3 mps 746 mmHg 89%
04:00 +14°C° 0.1 mm 4 mps 746 mmHg 88%
05:00 +14°C° 0.1 mm 4 mps 746 mmHg 88%
06:00 +14°C° 0 mm 4 mps 746 mmHg 89%
07:00 +14°C° 0 mm 4 mps 746 mmHg 89%
08:00 +14°C° 0 mm 5 mps 747 mmHg 89%
09:00 +14°C° 0 mm 5 mps 747 mmHg 89%
10:00 +14°C° 0 mm 5 mps 747 mmHg 89%
11:00 +14°C° 0 mm 5 mps 747 mmHg 89%
12:00 +14°C° 0.1 mm 5 mps 747 mmHg 90%
13:00 +13°C° 0.1 mm 6 mps 747 mmHg 91%
14:00 +13°C° 0.1 mm 6 mps 747 mmHg 91%
15:00 +13°C° 0 mm 6 mps 747 mmHg 90%
16:00 +13°C° 0 mm 5 mps 747 mmHg 89%
17:00 +14°C° 0 mm 5 mps 747 mmHg 88%
18:00 +13°C° 0.2 mm 5 mps 747 mmHg 89%
19:00 +13°C° 0.2 mm 4 mps 747 mmHg 91%
20:00 +12°C° 0.2 mm 4 mps 747 mmHg 92%
21:00 +12°C° 0.1 mm 4 mps 747 mmHg 93%
22:00 +12°C° 0.1 mm 4 mps 747 mmHg 93%
23:00 +12°C° 0.1 mm 4 mps 746 mmHg 94%

13 July, Monday

Time Temperature Precipitation Wind Pressure Humidity
00:00 +12°C° 0.1 mm 4 mps 746 mmHg 93%
01:00 +11°C° 0.1 mm 4 mps 746 mmHg 93%
02:00 +11°C° 0.1 mm 4 mps 746 mmHg 93%
03:00 +11°C° 1.3 mm 4 mps 745 mmHg 94%
04:00 +10°C° 1.3 mm 5 mps 745 mmHg 95%
05:00 +10°C° 1.3 mm 5 mps 745 mmHg 96%
06:00 +10°C° 1.6 mm 5 mps 745 mmHg 96%
07:00 +10°C° 1.6 mm 5 mps 745 mmHg 96%
08:00 +10°C° 1.6 mm 5 mps 745 mmHg 96%
09:00 +10°C° 0.8 mm 5 mps 745 mmHg 96%
10:00 +10°C° 0.8 mm 5 mps 745 mmHg 95%
11:00 +12°C° 0.8 mm 5 mps 745 mmHg 95%
12:00 +12°C° 0.2 mm 5 mps 745 mmHg 94%
13:00 +12°C° 0.2 mm 5 mps 745 mmHg 93%
14:00 +11°C° 0.2 mm 6 mps 745 mmHg 93%
15:00 +12°C° 0 mm 5 mps 745 mmHg 92%
16:00 +12°C° 0 mm 5 mps 744 mmHg 92%
17:00 +12°C° 0 mm 5 mps 744 mmHg 91%
18:00 +12°C° 0 mm 5 mps 744 mmHg 91%
19:00 +12°C° 0 mm 5 mps 744 mmHg 90%
20:00 +12°C° 0 mm 5 mps 744 mmHg 89%
21:00 +12°C° 0 mm 5 mps 744 mmHg 89%
22:00 +12°C° 0 mm 5 mps 743 mmHg 88%
23:00 +12°C° 0 mm 5 mps 743 mmHg 87%

14 July, Tuesday

Time Temperature Precipitation Wind Pressure Humidity
00:00 +12°C° 0 mm 5 mps 743 mmHg 87%
01:00 +12°C° 0 mm 5 mps 743 mmHg 87%
02:00 +12°C° 0 mm 5 mps 743 mmHg 87%
03:00 +12°C° 0 mm 5 mps 743 mmHg 87%
04:00 +12°C° 0 mm 5 mps 742 mmHg 87%
05:00 +12°C° 0 mm 5 mps 742 mmHg 87%
06:00 +13°C° 0 mm 5 mps 742 mmHg 86%
07:00 +13°C° 0 mm 5 mps 742 mmHg 85%
08:00 +14°C° 0 mm 6 mps 742 mmHg 84%
09:00 +15°C° 0 mm 6 mps 742 mmHg 82%
10:00 +16°C° 0 mm 6 mps 742 mmHg 80%
11:00 +16°C° 0 mm 6 mps 742 mmHg 78%
12:00 +17°C° 0 mm 6 mps 742 mmHg 77%
13:00 +17°C° 0 mm 6 mps 742 mmHg 76%
14:00 +19°C° 0 mm 5 mps 741 mmHg 76%
15:00 +19°C° 0 mm 5 mps 741 mmHg 76%
16:00 +19°C° 0 mm 5 mps 741 mmHg 76%
17:00 +19°C° 0 mm 5 mps 741 mmHg 76%
18:00 +17°C° 0 mm 5 mps 741 mmHg 74%
19:00 +16°C° 0 mm 5 mps 741 mmHg 72%
20:00 +16°C° 0 mm 5 mps 741 mmHg 70%
21:00 +15°C° 0 mm 5 mps 741 mmHg 71%
22:00 +15°C° 0 mm 5 mps 740 mmHg 72%
23:00 +15°C° 0 mm 5 mps 740 mmHg 73%
Show more